Regional Weather Roundup
Issued by NWS

Home | Current Version | Previous Version | Graphics & Text | Print | Product List | Glossary On
Versions: 1 2 3 4 5 6 7 8 9 10 11 12 13 14 15 16 17 18 19 20 21 22 23 24 25 26 27 28 29 30 31 32 33 34 35 36 37 38 39 40 41 42 43 44 45 46 47 48 49 50
000
ASUS45 KBOU 211207
RWRCO

WEATHER ROUNDUP FOR COLORADO
NATIONAL WEATHER SERVICE DENVER/BOULDER CO
600 AM MDT THU SEP 21 2017

NOTE: "FAIR" INDICATES FEW OR NO CLOUDS BELOW 12000 FEET WITH NO
SIGNIFICANT WEATHER AND/OR OBSTRUCTIONS TO VISIBILITY.

COZ001>005-013-030-031-211300-
...NORTHWEST COLORADO...

CITY           SKY/WX    TMP DP  RH WIND       PRES   REMARKS
CRAIG          FAIR      61  28  28 SW12      29.81S
HAYDEN         FAIR      59  29  31 S10       29.86S
MEEKER         FAIR      61  29  29 VRB6      29.84S
RABBIT EARS PA FAIR      43  27  52 SW15G25   30.08F
STEAMBOAT SPGS FAIR      42  32  67 NW3       29.87R
WALDEN         FAIR      52  25  35 S15G22    29.94S
$$

COZ006>008-011-211300-
...WEST CENTRAL VALLEYS...

CITY           SKY/WX    TMP DP  RH WIND       PRES   REMARKS
GRAND JUNCTION FAIR      68  36  30 SE20      29.82R
MONTROSE       FAIR      64  31  28 S10       29.94F
EAGLE          FAIR      64  28  25 SW12G26   29.91S
RIFLE          FAIR      57  29  34 SW3       29.84R
DELTA          NOT AVBL
NUCLA          FAIR      63  32  31 S18       29.97F
$$

COZ017>023-064>068-211300-
...SOUTHWEST COLORADO...

CITY           SKY/WX    TMP DP  RH WIND       PRES   REMARKS
DURANGO        FAIR      42  31  64 N5        30.08S
CORTEZ         FAIR      46  35  65 NE5       30.00S
PAGOSA SPRINGS NOT AVBL
TELLURIDE      FAIR      53  27  37 SE15G22   30.16S
WOLF CREEK PAS FAIR      34  28  80 S26G39    30.33S WCI  21
$$

COZ009-010-012-014-032>034-037-058>063-211300-
...CENTRAL COLORADO...

CITY           SKY/WX    TMP DP  RH WIND       PRES   REMARKS
ASPEN          FAIR      49  27  42 S13       29.99S
BUENA VISTA    FAIR      53  22  29 S14G22    30.03S
COPPER MTN     FAIR      45  12  26 S22G32    30.23R
BERTHOUD PASS  FAIR      37  30  75 W37G49    30.18F
COTTONWOOD PAS FAIR      55  21  26 W10G20    30.13R
GUNNISON       FAIR      31  26  82 CALM      30.10R
KREMMLING      FAIR      39  28  65 E3        29.96R
LEADVILLE      FAIR      36  19  50 SE5       30.11S
MONARCH PASS   FAIR      37  21  52 SW32      30.36S
SALIDA         FAIR      56  24  29 SW9       30.10S
SUNLIGHT       FAIR      39  27  60 SW15G37   30.14F
WILKERSON PASS FAIR      43  19  39 SW24G37   30.18R
$$

COZ069>075-211300-
...SAN LUIS VALLEY/SANGRE DE CRISTO MOUNTAINS...

CITY           SKY/WX    TMP DP  RH WIND       PRES   REMARKS
ALAMOSA        FAIR      48  31  51 S12       30.09S
DEL NORTE      FAIR      50  30  46 W10       30.11S
LA VETA PASS   FAIR      45  27  49 S24G53    30.24R
SAGUACHE       FAIR      36  28  75 N6        30.12R
$$

COZ035-036-038>040-211300-
...NORTHERN COLORADO FRONT RANGE...

CITY           SKY/WX    TMP DP  RH WIND       PRES   REMARKS
DENVER INTL AP FAIR      64  24  21 S17       29.79R
DMNS CITY PARK   N/A     58  29  32 E9        29.78S
AURORA         PTCLDY    55  26  32 S14       29.82S
FRONT RANGE AP FAIR      68  25  19 S15       29.81R
ERIE MUNI ARPT FAIR      40  35  80 SW3       29.84S
BOULDER MUN AP FAIR      46  37  71 CALM      29.78F
CENTENNIAL     FAIR      65  24  21 S13       29.83R
BROOMFIELD     FAIR      52  32  46 N7        29.80S
FORT COLLINS   FAIR      46  36  68 N7        29.79S
LONGMONT       FAIR      42  35  76 CALM      29.81S
$$

COZ041-046-047-076>085-087-088-211300-
...PIKES PEAK/PALMER DIVIDE AND SOUTHERN FOOTHILLS...

CITY           SKY/WX    TMP DP  RH WIND       PRES   REMARKS
COLO. SPRINGS  FAIR      51  34  52 E12       29.90F
A. F. ACADEMY  FAIR      45  30  55 NW5       29.90S
SCHRIEVER AFB  FAIR      49  34  56 CALM      29.90S
CHEYENNE MTN   FAIR      65  21  18 SE23G37   29.86F
ELLICOTT         N/A    N/A N/A N/A CALM      29.89R
FALCON         FAIR      50  30  45 SE5       29.94S
FORT CARSON    FAIR      45  34  66 N7        29.87S
LIMON          FAIR      34  31  88 CALM      29.85S
MONUMENT HILL  FAIR      48  27  43 S6        29.94S
CANON CITY     CLEAR     46  32  57 W6        29.86F
WALSENBURG     FAIR      64  30  27 S12       29.93S
TRINIDAD       FAIR      60  33  36 SW12      29.93S
$$

COZ042>045-048>051-090-091-211300-
...NORTHEAST COLORADO...

CITY           SKY/WX    TMP DP  RH WIND       PRES   REMARKS
GREELEY ARPT   FAIR      40  35  83 NW6       29.79R
AKRON          FAIR      46  35  65 S6        29.77S
BURLINGTON     FAIR      54  41  61 S14       29.80R
WRAY           FAIR      48  41  76 E7        29.77S
YUMA           FAIR      37  34  87 CALM      29.77S
STERLING       FAIR      41  36  81 N7        29.75S
HOLYOKE        NOT AVBL
FORT MORGAN    NOT AVBL
$$

COZ086-089-092>099-211300-
...SOUTHEAST COLORADO...

CITY           SKY/WX    TMP DP  RH WIND       PRES   REMARKS
PUEBLO         FAIR      39  30  70 NW5       29.83F
LA JUNTA       FAIR      48  38  68 NW7       29.82S
LAMAR          FAIR      43  36  76 W5        29.80R
SPRINGFIELD      N/A     55  43  63 SW9       29.86S
$$



USA.gov is the U.S. government's official web portal to all federal, state and local government web resources and services.